Regional Weather Roundup
Issued by NWS

Home | Current Version | Previous Version | Graphics & Text | Print | Product List | Glossary On
Versions: 1 2 3 4 5 6 7 8 9 10 11 12 13 14 15 16 17 18 19 20 21 22 23 24 25 26 27 28 29 30 31 32 33 34 35 36 37 38 39 40 41 42 43 44 45 46 47 48 49 50
414
ASUS43 KOAX 231202
RWRNE

WEATHER ROUNDUP FOR NEBRASKA
NATIONAL WEATHER SERVICE OMAHA NE
700 AM CDT TUE MAY 23 2017

NOTES: SATELLITE DATA IS BEING USED TO AUGMENT CLOUD COVER ABOVE
       12000 FEET.
       "FAIR" INDICATES FEW OR NO CLOUDS BELOW 12,000 FEET WITH NO
       SIGNIFICANT WEATHER AND/OR OBSTRUCTIONS TO VISIBILITY.

  * THESE STATIONS DO NOT REPORT WEATHER SUCH AS RAIN...SNOW OR FOG.

NEZ001>004-019>022-054>056-231300-
NEBRASKA PANHANDLE

CITY           SKY/WX    TMP DP  RH WIND       PRES   REMARKS
SCOTTSBLUFF    CLOUDY    38  35  89 W7        30.16S WCI  33
6HR MIN TEMP:  35; 6HR MAX TEMP:  41;

ALLIANCE       MOCLDY    36  34  92 W7        30.12R WCI  30
6HR MIN TEMP:  33; 6HR MAX TEMP:  43;

CHADRON        CLOUDY    44  39  82 NW13      30.14R
6HR MIN TEMP:  42; 6HR MAX TEMP:  46;

GORDON         CLOUDY    45  39  80 NW10      30.10R
6HR MIN TEMP:  42; 6HR MAX TEMP:  45;

KIMBALL        CLEAR     37  35  93 W9        30.18R WCI  30
SIDNEY         CLEAR     36  35  96 W8        30.15S WCI  30
6HR MIN TEMP:  35; 6HR MAX TEMP:  38;

$$

NEZ057>060-069>072-079>082-231300-
SOUTHWEST NEBRASKA

CITY           SKY/WX    TMP DP  RH WIND       PRES   REMARKS
NORTH PLATTE   CLOUDY    45  43  93 W8        30.06S
6HR MIN TEMP:  40; 6HR MAX TEMP:  45;

IMPERIAL       CLOUDY    45  39  79 NW13      30.10S
6HR MIN TEMP:  41; 6HR MAX TEMP:  45;

LEXINGTON      CLOUDY    45  42  89 NW7       30.03F
MCCOOK         CLEAR     42  40  92 W13       30.07R
6HR MIN TEMP:  42; 6HR MAX TEMP:  47;

OGALLALA       CLOUDY    46  41  83 NW14      30.09F
$$

NEZ005>010-023>029-035>040-094-231300-
NORTH CENTRAL NEBRASKA

CITY           SKY/WX    TMP DP  RH WIND       PRES   REMARKS
VALENTINE      CLOUDY    49  40  71 N22       30.03R
6HR MIN TEMP:  47; 6HR MAX TEMP:  50;

AINSWORTH      CLOUDY    49  43  81 N24       30.01R
BROKEN BOW     CLOUDY    48  42  80 NW10      30.00S
6HR MIN TEMP:  46; 6HR MAX TEMP:  49;

O`NEILL        CLOUDY    49  44  80 W12       29.95S
ORD            CLOUDY    47  42  83 W10       29.96F
6HR MIN TEMP:  43; 6HR MAX TEMP:  47;

THEDFORD       CLOUDY    47  44  86 NW12G18   30.03S
$$

NEZ041-046>049-061>064-073>077-083>087-231300-
SOUTH CENTRAL NEBRASKA

CITY           SKY/WX    TMP DP  RH WIND       PRES   REMARKS
GRAND ISLAND   CLOUDY    47  44  90 W10       29.99S
6HR MIN TEMP:  45; 6HR MAX TEMP:  53;

AURORA         PTCLDY    47  44  88 NW10      29.97F
HASTINGS       PTCLDY    47  43  86 NW9       30.00S
6HR MIN TEMP:  46; 6HR MAX TEMP:  53;

HEBRON         CLEAR     50  46  86 NW7       29.97S
HOLDREGE       CLOUDY    46  43  89 NW10      30.02S
KEARNEY *      CLOUDY    48  43  81 NW8       30.01S
$$

NEZ011>018-030>034-042>045-231300-
NORTHEAST NEBRASKA

CITY           SKY/WX    TMP DP  RH WIND       PRES   REMARKS
NORFOLK        CLOUDY    47  42  83 W8        29.93S
6HR MIN TEMP:  45; 6HR MAX TEMP:  48;

ALBION         CLOUDY    47  44  87 NW3       29.96S
BLAIR          CLEAR     48  44  87 NW5       29.91S
FREMONT        CLEAR     47  44  87 NW8       29.93R
TEKAMAH        CLEAR     48  43  82 NW12      29.91S
6HR MIN TEMP:  47; 6HR MAX TEMP:  51;

WAYNE          CLOUDY    48  47  96 NW8       29.93R
$$

NEZ050>053-065>068-078-088>093-231300-
SOUTHEAST NEBRASKA

CITY           SKY/WX    TMP DP  RH WIND       PRES   REMARKS
LINCOLN        CLEAR     50  44  80 NW8       29.95S
6HR MIN TEMP:  50; 6HR MAX TEMP:  56;

OMAHA EPPLEY   PTCLDY    50  43  77 NW10      29.91S
6HR MIN TEMP:  47; 6HR MAX TEMP:  56;

BEATRICE       CLEAR     50  46  87 NW8       29.95R
FALLS CITY     PTCLDY    51  48  89 NW8       29.91R
6HR MIN TEMP:  50; 6HR MAX TEMP:  55;

NEBRASKA CITY  CLEAR     50  44  80 NW9       29.92R
PLATTSMOUTH    CLEAR     49  43  80 NW6       29.92R
$$

NEZ044-045-051>053-067-231300-
OMAHA AREA

CITY           SKY/WX    TMP DP  RH WIND       PRES   REMARKS
OMAHA EPPLEY   PTCLDY    50  43  77 NW10      29.91S
6HR MIN TEMP:  47; 6HR MAX TEMP:  56;

BLAIR          CLEAR     48  44  87 NW5       29.91S
FREMONT        CLEAR     47  44  87 NW8       29.93R
MILLARD        CLEAR     51  46  81 NW9       29.92S
OFFUTT AFB     CLEAR     50  43  78 NW8       29.90S
PLATTSMOUTH    CLEAR     49  43  80 NW6       29.92R
WAHOO          FAIR      48  43  81 NW7       29.93S
$$




USA.gov is the U.S. government's official web portal to all federal, state and local government web resources and services.